Location: ??
(34.7707°N, 135.6540°E)
Time: 06:58:14
(UTC+00:00)

MSX - Pass Details

Date: 09 April 2020
Orbit: 895 x 905 km, 98.8° (Epoch: 25 May)

Event Time Altitude Azimuth Distance (km) Brightness Sun altitude
Rises 18:13:08 0° 18° (NNE) 3,532 7.7 -27.3°
Reaches altitude 10° 18:15:36 10° 23° (NNE) 2,589 6.9 -26.9°
Maximum altitude 18:21:16 55° 101° (E) 1,073 4.4 -25.9°
Enters shadow 18:24:27 26° 168° (SSE) 1,706 5.1 -25.4°
